Regional Weather Roundup
Issued by NWS

Home | Current Version | Previous Version | Graphics & Text | Print | Product List | Glossary On
Versions: 1 2 3 4 5 6 7 8 9 10 11 12 13 14 15 16 17 18 19 20 21 22 23 24 25 26 27 28 29 30 31 32 33 34 35 36 37 38 39 40 41 42 43 44 45 46 47 48 49 50
000
ASUS45 KPSR 121310
RWRAZ

ARIZONA HOURLY REGIONAL WEATHER ROUNDUP
NATIONAL WEATHER SERVICE PHOENIX AZ
600 AM MST TUE DEC 12 2017

NOTE: FAIR INDICATES FEW OR NO CLOUDS BELOW 12,000 FEET WITH NO
SIGNIFICANT WEATHER AND/OR OBSTRUCTIONS TO VISIBILITY.

AZZ001>003-036-121400-
NORTHWEST ARIZONA

CITY           SKY/WX    TMP DP  RH WIND       PRES   REMARKS
BULLHEAD CITY  CLEAR     59   3  10 N26G33    30.25F
KINGMAN        PTCLDY    40  -2  17 NE3       30.35S
$$

AZZ004>008-015-016-018-121400-
NORTH CENTRAL ARIZONA

CITY           SKY/WX    TMP DP  RH WIND       PRES   REMARKS
GRAND CANYON   MOCLDY    16 -12  28 NE8       30.47F WCI   5
WILLIAMS       PTCLDY    23   1  39 S9        30.42S WCI  13
PRESCOTT       MOCLDY    27  -3  27 S7        30.39S WCI  19
FLAGSTAFF      PTCLDY    20  -6  31 CALM      30.46F
PAYSON         CLEAR     43  -6  13 NE7       30.37S
PAGE           CLOUDY    28  10  46 W3        30.50S
$$

AZZ009>014-017-121400-
NORTHEAST ARIZONA

CITY           SKY/WX    TMP DP  RH WIND       PRES   REMARKS
WINSLOW        CLOUDY    10 -12  36 SE3       30.51R
SAINT JOHNS    CLOUDY     9  -8  46 CALM      30.47R
WINDOW ROCK    MOCLDY     9  -9  44 CALM      30.50R
SHOW LOW       MOCLDY    21  -6  30 CALM      30.47S
$$

AZZ540-542>544-546-548-121400-
GREATER PHOENIX AREA

CITY           SKY/WX    TMP DP  RH WIND       PRES   REMARKS
PHOENIX        MOCLDY    52  12  20 CALM      30.22S
BUCKEYE        CLEAR     45   0  15 NW6       30.24R
GLENDALE       MOCLDY    45  12  26 CALM      30.24
LUKE AFB       PTCLDY    40  19  43 N8        30.22S WCI  35
DEER VALLEY    PTCLDY    50  -1  12 CALM      30.23S
SCOTTSDALE     PTCLDY    47  17  30 CALM      30.24S
MESA-FALCON    MOCLDY    57   1  10 NE15      30.23
MESA-GATEWAY   PTCLDY    43  10  26 CALM      30.23F
CHANDLER       CLEAR     45  18  33 CALM      30.23
$$

AZZ539-553-121400-
SOUTHWEST MARICOPA COUNTY AND PINAL COUNTY

CITY           SKY/WX    TMP DP  RH WIND       PRES   REMARKS
CASA GRANDE    NOT AVBL
$$

AZZ503-504-507>509-121400-
SOUTHEAST ARIZONA

CITY           SKY/WX    TMP DP  RH WIND       PRES   REMARKS
TUCSON         PTCLDY    49  19  30 S9        30.26S
DAVIS-MONTHAN  PTCLDY    51  18  27 SE6       30.24S
RYAN FIELD     CLEAR     48  19  32 E7        30.26
NOGALES        CLEAR     42  19  39 E5        30.28R
SIERRA VISTA   PTCLDY    40  18  42 CALM      30.34R
DOUGLAS        PTCLDY    29  12  49 N7        30.33S WCI  22
SAFFORD        PTCLDY    45   6  20 E14       30.36R
$$

AZZ532-121400-
SOUTHWEST ARIZONA

CITY           SKY/WX    TMP DP  RH WIND       PRES   REMARKS
YUMA           CLEAR     53   8  16 N5        30.20S
$$

CAZ041-043-047-048-061-525>527-560>570-121400-
SOUTHERN CALIFORNIA

CITY           SKY/WX    TMP DP  RH WIND       PRES   REMARKS
DOWNTOWN L.A.  CLEAR     58   5  12 N3        30.17F
L.A. AIRPORT   PTCLDY    55   9  16 E5        30.18F
SAN DIEGO      CLEAR     53  18  25 CALM      30.18S
BURBANK        CLEAR     46  13  26 CALM      30.18F
ONTARIO        PTCLDY    49  18  29 NE5       30.20F
RIVERSIDE      CLEAR     49  11  21 NE7       30.21S
PALM SPRINGS   CLEAR     61   1   9 W6        30.24S
EL CENTRO NAS  CLEAR     44   5  20 W8        30.23S
IMPERIAL       CLEAR     45  10  24 W9        30.20S
BLYTHE         CLEAR     44  -3  14 E3        30.25S
NEEDLES        CLEAR     57   4  12 N12       30.27S
$$

NVZ020-UTZ003-121400-
SOUTHERN NEVADA-UTAH

CITY           SKY/WX    TMP DP  RH WIND       PRES   REMARKS
LAS VEGAS      CLEAR     39  -1  18 SW5       30.36S
SALT LAKE CITY SNOW      24  22  91 CALM      30.59F VSB 1/4
$$

NMZ009-TXZ055-121400-
NEW MEXICO-WEST TEXAS

CITY           SKY/WX    TMP DP  RH WIND       PRES   REMARKS
ALBUQUERQUE    CLOUDY    32   4  30 N6        30.49S WCI  26
EL PASO        PTCLDY    35  16  45 N7        30.43S WCI  29
$$


........................KEY........................
SKY/WX - SKY CONDITION/WEATHER
TMP    - TEMPERATURE IN FAHRENHEIT
DP     - DEW POINT IN FAHRENHEIT
RH     - RELATIVE HUMIDITY IN PERCENT
WIND   - DIRECTION AND SPEED IN MILES PER HOUR (MPH)
VRB    - VARIABLE WIND DIRECTION
PRES   - MEAN SEA LEVEL PRESSURE IN INCHES OF MERCURY
         F - FALLING PRESSURE   R - RISING PRESSURE
         S - STEADY PRESSURE
VSB    - VISIBILITY IN MILES
HX     - HEAT INDEX IN FAHRENHEIT
WCI    - WIND CHILL INDEX IN FAHRENHEIT
TC     - TEMPERATURE IN CELSIUS WHICH IS ALSO KNOWN AS
         TEMPERATURE IN CENTIGRADE
AFB    - AIR FORCE BASE
         LUKE AFB IS LUKE AIR FORCE BASE
         DAVIS-MONTHAN IS DAVIS-MONTHAN AIR FORCE BASE
NAS    - NAVAL AIR STATION
         EL CENTRO NAS IS EL CENTRO NAVAL AIR STATION
N/A    - NOT AVAILABLE




USA.gov is the U.S. government's official web portal to all federal, state and local government web resources and services.